TimeEDT,TemperatureF,Dew PointF,Humidity,Sea Level PressureIn,VisibilityMPH,Wind Direction,Wind SpeedMPH,Gust SpeedMPH,PrecipitationIn,Events,Conditions,WindDirDegrees,DateUTC
12:15 AM,69.1,60.1,73,30.10,10.0,Calm,Calm,-,N/A,,Clear,0,2013-06-16 04:15:00
12:35 AM,67.5,59.5,76,30.11,10.0,Calm,Calm,-,N/A,,Clear,0,2013-06-16 04:35:00
12:55 AM,67.1,59.0,75,30.11,10.0,Calm,Calm,-,N/A,,Clear,0,2013-06-16 04:55:00
1:15 AM,66.9,58.3,74,30.11,10.0,Calm,Calm,-,N/A,,Clear,0,2013-06-16 05:15:00
1:35 AM,67.8,57.4,69,30.12,10.0,Calm,Calm,-,N/A,,Clear,0,2013-06-16 05:35:00
1:55 AM,65.5,57.7,76,30.11,10.0,Calm,Calm,-,N/A,,Clear,0,2013-06-16 05:55:00
2:15 AM,63.9,58.3,82,30.11,10.0,Calm,Calm,-,N/A,,Clear,0,2013-06-16 06:15:00
2:35 AM,64.2,57.6,79,30.10,10.0,Calm,Calm,-,N/A,,Clear,0,2013-06-16 06:35:00
2:55 AM,64.4,56.5,75,30.10,10.0,Calm,Calm,-,N/A,,Clear,0,2013-06-16 06:55:00
3:15 AM,64.6,55.4,72,30.10,10.0,South,3.5,-,N/A,,Clear,180,2013-06-16 07:15:00
3:35 AM,65.3,54.3,68,30.10,10.0,Calm,Calm,-,N/A,,Clear,0,2013-06-16 07:35:00
3:55 AM,62.8,55.8,78,30.09,10.0,Calm,Calm,-,N/A,,Clear,0,2013-06-16 07:55:00
4:15 AM,61.2,56.5,85,30.09,10.0,Calm,Calm,-,N/A,,Clear,0,2013-06-16 08:15:00
4:35 AM,60.8,57.2,88,30.10,10.0,Calm,Calm,-,N/A,,Clear,0,2013-06-16 08:35:00
4:55 AM,60.3,57.4,90,30.10,10.0,Calm,Calm,-,N/A,,Clear,0,2013-06-16 08:55:00
5:15 AM,60.3,57.2,90,30.11,10.0,Calm,Calm,-,N/A,,Clear,0,2013-06-16 09:15:00
5:35 AM,59.0,56.3,91,30.11,10.0,Calm,Calm,-,N/A,,Clear,0,2013-06-16 09:35:00
5:55 AM,58.3,56.1,93,30.12,10.0,Calm,Calm,-,N/A,,Clear,0,2013-06-16 09:55:00
6:15 AM,58.3,55.9,92,30.12,10.0,Calm,Calm,-,N/A,,Clear,0,2013-06-16 10:15:00
6:35 AM,58.3,55.9,92,30.12,10.0,Calm,Calm,-,N/A,,Clear,0,2013-06-16 10:35:00
6:55 AM,59.4,57.4,93,30.12,10.0,Calm,Calm,-,N/A,,Clear,0,2013-06-16 10:55:00
7:15 AM,62.4,59.7,91,30.13,10.0,Calm,Calm,-,N/A,,Scattered Clouds,0,2013-06-16 11:15:00
7:35 AM,66.9,58.8,75,30.14,10.0,SW,3.5,-,N/A,,Mostly Cloudy,230,2013-06-16 11:35:00
7:55 AM,68.5,59.4,72,30.14,10.0,SW,4.6,-,N/A,,Mostly Cloudy,230,2013-06-16 11:55:00
8:15 AM,68.4,59.5,73,30.14,10.0,SW,3.5,-,N/A,,Mostly Cloudy,220,2013-06-16 12:15:00
8:35 AM,70.5,60.4,70,30.14,10.0,SW,5.8,-,N/A,,Scattered Clouds,220,2013-06-16 12:35:00
8:55 AM,71.6,59.4,65,30.14,10.0,SW,6.9,-,N/A,,Clear,220,2013-06-16 12:55:00
9:15 AM,73.6,59.4,61,30.14,10.0,WSW,5.8,-,N/A,,Scattered Clouds,240,2013-06-16 13:15:00
9:35 AM,74.5,60.4,61,30.14,10.0,SW,8.1,-,N/A,,Scattered Clouds,230,2013-06-16 13:35:00
9:55 AM,76.3,61.5,60,30.14,10.0,WSW,9.2,-,N/A,,Scattered Clouds,240,2013-06-16 13:55:00
10:15 AM,77.9,62.8,60,30.13,10.0,SW,11.5,18.4,N/A,,Clear,230,2013-06-16 14:15:00
10:35 AM,78.8,63.9,60,30.12,10.0,SW,10.4,-,N/A,,Clear,220,2013-06-16 14:35:00
10:55 AM,80.2,65.3,60,30.11,10.0,WSW,8.1,-,N/A,,Scattered Clouds,240,2013-06-16 14:55:00
11:15 AM,80.8,64.8,58,30.11,10.0,SSW,11.5,16.1,N/A,,Clear,210,2013-06-16 15:15:00
11:35 AM,81.5,65.1,57,30.11,10.0,SSW,12.7,17.3,N/A,,Scattered Clouds,210,2013-06-16 15:35:00
11:55 AM,81.9,64.6,56,30.10,10.0,WSW,10.4,-,N/A,,Scattered Clouds,240,2013-06-16 15:55:00
12:15 PM,83.1,63.9,52,30.10,10.0,SW,11.5,19.6,N/A,,Clear,230,2013-06-16 16:15:00
12:35 PM,83.8,65.3,53,30.09,10.0,SW,13.8,-,N/A,,Clear,220,2013-06-16 16:35:00
12:55 PM,84.2,64.6,52,30.08,10.0,SW,9.2,18.4,N/A,,Clear,220,2013-06-16 16:55:00
1:15 PM,84.6,63.9,50,30.08,10.0,SW,15.0,19.6,N/A,,Clear,220,2013-06-16 17:15:00
1:35 PM,85.5,64.9,50,30.07,10.0,SW,12.7,17.3,N/A,,Clear,220,2013-06-16 17:35:00
1:55 PM,85.5,64.8,50,30.06,10.0,South,12.7,17.3,N/A,,Clear,190,2013-06-16 17:55:00
2:15 PM,85.6,65.1,50,30.06,10.0,SSW,13.8,18.4,N/A,,Scattered Clouds,200,2013-06-16 18:15:00
2:35 PM,85.8,65.5,50,30.06,10.0,WSW,13.8,18.4,N/A,,Scattered Clouds,250,2013-06-16 18:35:00
2:55 PM,86.2,65.8,51,30.05,10.0,SW,10.4,16.1,N/A,,Scattered Clouds,230,2013-06-16 18:55:00
3:15 PM,86.5,65.7,50,30.05,10.0,SW,10.4,-,N/A,,Scattered Clouds,230,2013-06-16 19:15:00
3:35 PM,86.4,65.1,49,30.04,10.0,WSW,10.4,17.3,N/A,,Mostly Cloudy,240,2013-06-16 19:35:00
3:55 PM,85.8,65.3,50,30.04,10.0,SW,10.4,-,N/A,,Scattered Clouds,230,2013-06-16 19:55:00
4:15 PM,86.4,64.6,48,30.04,10.0,WSW,9.2,-,N/A,,Clear,240,2013-06-16 20:15:00
4:35 PM,86.9,64.9,48,30.03,10.0,West,10.4,-,N/A,,Scattered Clouds,260,2013-06-16 20:35:00
4:55 PM,86.9,64.9,48,30.03,10.0,SW,9.2,-,N/A,,Scattered Clouds,220,2013-06-16 20:55:00
5:15 PM,86.7,65.5,49,30.03,10.0,SW,10.4,-,N/A,,Scattered Clouds,220,2013-06-16 21:15:00
5:35 PM,85.3,64.6,50,30.03,10.0,SW,8.1,-,N/A,,Clear,220,2013-06-16 21:35:00
5:55 PM,86.2,65.1,49,30.03,10.0,SW,8.1,-,N/A,,Clear,220,2013-06-16 21:55:00
6:15 PM,84.6,65.1,52,30.02,10.0,SW,8.1,-,N/A,,Clear,220,2013-06-16 22:15:00
6:35 PM,85.1,64.2,49,30.02,10.0,SSW,5.8,-,N/A,,Clear,210,2013-06-16 22:35:00
6:55 PM,84.2,64.9,52,30.02,10.0,SW,4.6,-,N/A,,Clear,220,2013-06-16 22:55:00
7:15 PM,84.2,65.1,53,30.02,10.0,SW,5.8,-,N/A,,Clear,220,2013-06-16 23:15:00
7:35 PM,82.8,64.9,55,30.02,10.0,SW,4.6,-,N/A,,Clear,220,2013-06-16 23:35:00
7:55 PM,80.6,67.1,63,30.02,10.0,Calm,Calm,-,N/A,,Clear,0,2013-06-16 23:55:00
8:15 PM,77.7,67.6,71,30.02,10.0,Calm,Calm,-,N/A,,Clear,0,2013-06-17 00:15:00
8:35 PM,76.8,67.6,73,30.02,10.0,Calm,Calm,-,N/A,,Clear,0,2013-06-17 00:35:00
8:55 PM,75.2,68.0,78,30.02,10.0,Calm,Calm,-,N/A,,Clear,0,2013-06-17 00:55:00
9:15 PM,73.9,68.2,82,30.03,10.0,Calm,Calm,-,N/A,,Clear,0,2013-06-17 01:15:00
9:35 PM,73.9,67.6,81,30.03,10.0,Calm,Calm,-,N/A,,Clear,0,2013-06-17 01:35:00
9:55 PM,71.8,68.0,88,30.03,10.0,Calm,Calm,-,N/A,,Clear,0,2013-06-17 01:55:00
10:15 PM,72.1,67.3,85,30.04,10.0,Calm,Calm,-,N/A,,Clear,0,2013-06-17 02:15:00
10:35 PM,72.5,67.1,83,30.05,10.0,Calm,Calm,-,N/A,,Clear,0,2013-06-17 02:35:00
10:55 PM,71.1,67.1,87,30.05,10.0,Calm,Calm,-,N/A,,Clear,0,2013-06-17 02:55:00
11:15 PM,72.3,66.4,82,30.04,10.0,South,3.5,-,N/A,,Clear,190,2013-06-17 03:15:00
11:35 PM,72.0,66.2,82,30.04,10.0,South,4.6,-,N/A,,Clear,190,2013-06-17 03:35:00
11:55 PM,72.7,65.3,78,30.05,10.0,South,4.6,-,N/A,,Clear,190,2013-06-17 03:55:00